[[{"header":{"parameterUnit":"m.s-1","parameterCategory":1,"la1":30.2991,"la2":30.254,"lo1":-89.0895,"lo2":-89.0444,"dy":0.0017,"dx":0.0017,"nx":28,"ny":28,"refTime":"2024-08-20T21:00:00:Z","depth":0,"parameterNumber":2,"parameterNumberName":"U-component_of_WINDS"},"data":[0,0,0,0,0,0,0,0,0,0,0,0,0,0,0,0,0,0,0,0,0,0,0,0,0,0,0,0,0,0,0,0,0,0,0,0,0,0,0,0,0,0,0,0,0,0,0,0,0,0,0,0,0,0,0,0,0,0,0.2082,0.2081,0,0.2014,0.2013,0.2013,0.2017,0.2018,0.2019,0.202,0.1946,0.1943,0.194,0,0,0,0,0,0,0,0,0,0,0,0,0,0.221,0.2208,0.2082,0.2081,0.208,0.2014,0.2013,0.2012,0.2017,0.2018,0.2019,0.202,0.1947,0.1943,0.194,0,0,0,0,0,0,0,0,0,0,0,0,0,0.215,0.2207,0.2082,0.2074,0.2073,0.2015,0.2013,0.2012,0.2016,0.2018,0.2019,0.2021,0.1948,0.1944,0.1939,0.1882,0,0,0.1926,0.1924,0,0,0,0,0,0,0,0,0.2153,0.2145,0.2076,0.2075,0.2073,0.2026,0.2032,0.1969,0.2016,0.2038,0.202,0.2022,0.1971,0.1965,0.1949,0.1879,0.1876,0.1926,0.1923,0.1921,0.192,0,0,0,0,0,0,0,0.2157,0.2148,0.2055,0.2075,0.2073,0.2073,0.2066,0.202,0.1996,0.2036,0.2036,0.2028,0.197,0.1953,0.1947,0.1875,0.1926,0.1922,0.1919,0.1918,0.1755,0.1753,0,0,0,0,0,0,0.2164,0.2151,0.2057,0.2053,0.2118,0.207,0.2062,0.2039,0.1997,0.1992,0.2027,0.2029,0.1959,0.1952,0.1944,0.1874,0.1921,0.1917,0.1915,0.1757,0.1755,0.1753,0,0,0,0,0,0,0.2167,0.2155,0.206,0.2102,0.209,0.2066,0.204,0.2037,0.202,0.1991,0.1986,0.2014,0.196,0.195,0.1898,0.1872,0.1915,0.1911,0.1759,0.1756,0.1754,0.1734,0,0,0,0,0,0,0.217,0.2156,0.2135,0.2102,0.2088,0.2016,0.2039,0.2035,0.2013,0.2014,0.1977,0.1972,0.1961,0.1905,0.1894,0.1866,0.1908,0.1761,0.1757,0.1754,0.1737,0.1731,0.1726,0,0,0,0,0,0.2175,0.2131,0.2134,0.2123,0.2061,0.2014,0.2006,0.1995,0.2011,0.1988,0.197,0.1973,0.1877,0.1899,0.1887,0.1858,0.1762,0.1758,0.1755,0.1739,0.1732,0.1726,0,0,0,0,0,0,0.216,0.2127,0.2129,0.2074,0.2047,0.2015,0.1987,0.1988,0.1955,0.1958,0.1945,0.1936,0.1884,0.1866,0.1891,0.1801,0.1821,0.1815,0.1814,0.1807,0.1802,0.1806,0.1904,0,0,0,0,0,0.2151,0.2117,0.2089,0.2043,0.203,0.2011,0.199,0.1984,0.1955,0.1943,0.1921,0.1891,0.1854,0.183,0.1794,0.1735,0.1726,0.1709,0.1704,0.17,0.1693,0.166,0.1652,0.174,0.174,0.174,0,0,0.213,0.2108,0.2087,0.2039,0.2018,0.1982,0.2001,0.1962,0.1934,0.1937,0.1886,0.1869,0.1835,0.1779,0.1753,0.1762,0.1668,0.1695,0.1692,0.1688,0.1655,0.1647,0.164,0.1737,0.1738,0.1738,0,0,0.2074,0.2055,0.2014,0.1992,0.1961,0.1949,0.1939,0.1907,0.1896,0.1846,0.1847,0.1814,0.1751,0.1727,0.1706,0.1643,0.1644,0.1632,0.1603,0.157,0.1563,0.1557,0.1533,0.1525,0.1626,0.1626,0.1626,0,0.2052,0.1999,0.1992,0.1953,0.1931,0.1935,0.1893,0.1872,0.1829,0.1814,0.1826,0.1747,0.1725,0.1663,0.1648,0.1631,0.1619,0.1635,0.1565,0.1559,0.1553,0.153,0.1521,0.1625,0.1625,0.1625,0.1625,0,0.1972,0.1936,0.1907,0.1867,0.1843,0.1802,0.1788,0.1764,0.1762,0.1748,0.1697,0.167,0.1629,0.1615,0.1611,0.1552,0.1559,0.1569,0.1588,0.1543,0.1521,0.1513,0.1623,0.1623,0.1624,0.1624,0,0,0.1902,0.1862,0.1851,0.1833,0.1799,0.177,0.173,0.1692,0.1671,0.1642,0.1606,0.1554,0.1563,0.154,0.1534,0.1506,0.1456,0.1518,0.1517,0.1506,0.1388,0.138,0.137,0.1458,0.1457,0.1455,0.1391,0,0.1841,0.1771,0.1764,0.1701,0.1666,0.167,0.1635,0.161,0.1597,0.1564,0.155,0.1512,0.1528,0.1513,0.1486,0.1468,0.1432,0.1473,0.1423,0.1421,0.1429,0.1359,0.1349,0.1289,0.1382,0.1381,0.138,0,0.1759,0.173,0.1664,0.1635,0.162,0.1589,0.1554,0.1524,0.1495,0.1488,0.1463,0.1461,0.1418,0.1443,0.1383,0.1411,0.1391,0.1379,0.1376,0.1369,0.1396,0.1347,0.127,0.126,0.1366,0.1367,0.1368,0,0.1712,0.1656,0.1609,0.1594,0.1561,0.1538,0.1523,0.1496,0.1474,0.1443,0.1429,0.1393,0.1372,0.1344,0.1332,0.1352,0.1273,0.1296,0.1264,0.1264,0.1244,0.1245,0.1161,0.1236,0.1236,0.1236,0.1236,0,0.1643,0.1602,0.1588,0.1559,0.1512,0.1506,0.146,0.1445,0.1422,0.1389,0.1391,0.1359,0.1347,0.1313,0.1304,0.1255,0.1247,0.1238,0.1235,0.1236,0.1237,0.1221,0.1224,0.1233,0.1234,0.1234,0.1235,0,0.1581,0.1571,0.1519,0.1493,0.1485,0.1452,0.1429,0.14,0.1389,0.1347,0.1337,0.1318,0.1279,0.1266,0.1217,0.1211,0.1154,0.1156,0.1164,0.1163,0.113,0.1133,0.103,0.1015,0.1102,0.1101,0.1101,0,0.1536,0.1505,0.1476,0.1455,0.1439,0.1405,0.1383,0.1376,0.1353,0.1319,0.1294,0.1256,0.1225,0.1162,0.1143,0.1106,0.1106,0.1073,0.11,0.1102,0.1103,0.1104,0.1101,0.1067,0.1066,0.1065,0.1065,0,0.1457,0.1454,0.1423,0.1391,0.1365,0.1339,0.1313,0.1296,0.1284,0.1258,0.1219,0.1195,0.1148,0.1109,0.1072,0.1055,0.1057,0.1057,0.1047,0.1046,0.1051,0.1046,0.1147,0.1058,0.1059,0.1059,0.106,0.106,0.1401,0.1373,0.1349,0.1314,0.1295,0.1272,0.1243,0.123,0.1198,0.1159,0.1157,0.1115,0.1088,0.1039,0.102,0.0986,0.0995,0.0981,0.0977,0.0973,0.097,0.1059,0.098,0.098,0.098,0.098,0.098,0,0.132,0.1305,0.1274,0.1239,0.1212,0.122,0.1193,0.1169,0.1132,0.1108,0.1078,0.1033,0.0996,0.0976,0.0939,0.0916,0.0916,0.0906,0.0906,0.0902,0.0965,0.0976,0.0907,0.0907,0.0907,0.0907,0.0907,0.0907,0.1275,0.1228,0.1223,0.1166,0.1151,0.1111,0.1095,0.1073,0.1053,0.1004,0.0974,0.0962,0.0939,0.0901,0.0867,0.0862,0.0847,0.0836,0.0832,0.089,0.0897,0.0905,0.0915,0.0834,0.0834,0.0771,0.0771,0.077]},{"header":{"parameterUnit":"m.s-1","parameterCategory":1,"la1":30.2991,"la2":30.254,"lo1":-89.0895,"lo2":-89.0444,"dy":0.0017,"dx":0.0017,"nx":28,"ny":28,"refTime":"2024-08-20T21:00:00:Z","depth":0,"parameterNumber":3,"parameterNumberName":"V-component_of_WINDS"},"data":[0,0,0,0,0,0,0,0,0,0,0,0,0,0,0,0,0,0,0,0,0,0,0,0,0,0,0,0,0,0,0,0,0,0,0,0,0,0,0,0,0,0,0,0,0,0,0,0,0,0,0,0,0,0,0,0,0,0,-3.4126,-3.4126,0,-3.4198,-3.4199,-3.42,-3.4153,-3.4151,-3.4149,-3.4147,-3.4217,-3.4221,-3.4225,0,0,0,0,0,0,0,0,0,0,0,0,0,-3.3942,-3.3945,-3.4126,-3.4126,-3.4127,-3.4198,-3.4199,-3.42,-3.4153,-3.4151,-3.4148,-3.4146,-3.4216,-3.4221,-3.4225,0,0,0,0,0,0,0,0,0,0,0,0,0,-3.4018,-3.3946,-3.4125,-3.4113,-3.4112,-3.4198,-3.4199,-3.42,-3.4154,-3.4151,-3.4148,-3.4145,-3.4215,-3.422,-3.4226,-3.4327,0,0,-3.4244,-3.4246,0,0,0,0,0,0,0,0,-3.4014,-3.4025,-3.4114,-3.4114,-3.4113,-3.4163,-3.416,-3.4243,-3.4155,-3.4138,-3.4147,-3.4143,-3.4202,-3.4208,-3.4229,-3.433,-3.4333,-3.4244,-3.4248,-3.425,-3.4252,0,0,0,0,0,0,0,-3.4009,-3.4022,-3.4154,-3.4115,-3.4115,-3.4102,-3.4109,-3.4175,-3.4187,-3.4139,-3.4136,-3.4146,-3.4201,-3.4224,-3.423,-3.4334,-3.4244,-3.4249,-3.4253,-3.4255,-3.4519,-3.4523,0,0,0,0,0,0,-3.4005,-3.4018,-3.4152,-3.4156,-3.4055,-3.4108,-3.4116,-3.4151,-3.4186,-3.4189,-3.4148,-3.4143,-3.4215,-3.4224,-3.4233,-3.4352,-3.425,-3.4256,-3.4259,-3.4516,-3.452,-3.4524,0,0,0,0,0,0,-3.4001,-3.4018,-3.4149,-3.4086,-3.4102,-3.4114,-3.4154,-3.4154,-3.4176,-3.4193,-3.4194,-3.417,-3.4213,-3.4224,-3.4304,-3.4354,-3.4258,-3.4264,-3.4512,-3.4517,-3.4522,-3.4592,0,0,0,0,0,0,-3.3996,-3.4017,-3.4056,-3.4088,-3.4106,-3.422,-3.4157,-3.4157,-3.4187,-3.4181,-3.4213,-3.4216,-3.4211,-3.4295,-3.4309,-3.436,-3.4268,-3.4507,-3.4514,-3.452,-3.4585,-3.4599,-3.4611,0,0,0,0,0,-3.399,-3.4073,-3.4059,-3.4075,-3.4156,-3.4223,-3.4233,-3.4228,-3.4191,-3.423,-3.4241,-3.4215,-3.4346,-3.4304,-3.4319,-3.4372,-3.4504,-3.4512,-3.452,-3.4579,-3.4596,-3.461,0,0,0,0,0,0,-3.4046,-3.4076,-3.4061,-3.4157,-3.4188,-3.4215,-3.4265,-3.4246,-3.4287,-3.428,-3.427,-3.4278,-3.436,-3.4374,-3.4326,-3.4471,-3.4419,-3.443,-3.4459,-3.4475,-3.4487,-3.4482,-3.4273,0,0,0,0,0,-3.407,-3.4123,-3.4147,-3.4228,-3.4245,-3.4252,-3.4282,-3.4275,-3.4306,-3.4319,-3.4335,-3.4365,-3.4413,-3.4445,-3.449,-3.4587,-3.4592,-3.4631,-3.4644,-3.4654,-3.4664,-3.4714,-3.4731,-3.455,-3.455,-3.455,0,0,-3.4118,-3.4142,-3.4176,-3.424,-3.4264,-3.4318,-3.4264,-3.4324,-3.4363,-3.4327,-3.4403,-3.4416,-3.4449,-3.4537,-3.4577,-3.4551,-3.4715,-3.4664,-3.4672,-3.4676,-3.4724,-3.4741,-3.4756,-3.4555,-3.4554,-3.4554,0,0,-3.4235,-3.4259,-3.4329,-3.4354,-3.439,-3.4394,-3.4411,-3.4441,-3.4449,-3.4525,-3.4499,-3.4545,-3.4628,-3.4652,-3.4675,-3.48,-3.4777,-3.4815,-3.4881,-3.493,-3.4945,-3.4957,-3.5,-3.5016,-3.4825,-3.4825,-3.4825,0,-3.4291,-3.4373,-3.4367,-3.4429,-3.4457,-3.4428,-3.4498,-3.4522,-3.457,-3.459,-3.4561,-3.4664,-3.4684,-3.4776,-3.4807,-3.4827,-3.4844,-3.4811,-3.4943,-3.4956,-3.4967,-3.5008,-3.5025,-3.4829,-3.4829,-3.4828,-3.4828,0,-3.4439,-3.4497,-3.4549,-3.4598,-3.4631,-3.4697,-3.4699,-3.4734,-3.4724,-3.4731,-3.4807,-3.483,-3.4879,-3.4901,-3.4891,-3.4991,-3.4974,-3.4945,-3.4892,-3.4989,-3.5027,-3.5043,-3.4835,-3.4834,-3.4833,-3.4831,0,0,-3.4593,-3.4638,-3.4657,-3.4678,-3.4715,-3.4759,-3.4822,-3.4871,-3.49,-3.4934,-3.4986,-3.5057,-3.5029,-3.5055,-3.5048,-3.5092,-3.5187,-3.5056,-3.5057,-3.5078,-3.5297,-3.5318,-3.5336,-3.5172,-3.5175,-3.5177,-3.5293,0,-3.4711,-3.4824,-3.4819,-3.4923,-3.4975,-3.4948,-3.5002,-3.503,-3.5038,-3.5081,-3.5089,-3.5139,-3.51,-3.5115,-3.5157,-3.5167,-3.523,-3.5158,-3.5218,-3.522,-3.521,-3.5356,-3.5379,-3.5488,-3.5308,-3.5311,-3.5313,0,-3.4864,-3.4904,-3.5014,-3.5042,-3.5064,-3.5114,-3.5157,-3.52,-3.523,-3.5232,-3.5261,-3.5247,-3.5309,-3.5255,-3.534,-3.5291,-3.5315,-3.5323,-3.5327,-3.5331,-3.5272,-3.5363,-3.5522,-3.5538,-3.5336,-3.5335,-3.5333,0,-3.4964,-3.5045,-3.5121,-3.514,-3.5175,-3.5211,-3.5227,-3.5254,-3.5283,-3.532,-3.5339,-3.5383,-3.5406,-3.544,-3.5436,-3.5398,-3.5522,-3.5468,-3.5523,-3.5524,-3.555,-3.5548,-3.5714,-3.5568,-3.5568,-3.5567,-3.5567,0,-3.5095,-3.5163,-3.5166,-3.5212,-3.5286,-3.528,-3.5353,-3.5365,-3.539,-3.5437,-3.5415,-3.5459,-3.5453,-3.5497,-3.5495,-3.5564,-3.5575,-3.5577,-3.5575,-3.5578,-3.5578,-3.5593,-3.5585,-3.5572,-3.5571,-3.557,-3.5569,0,-3.5219,-3.5224,-3.5304,-3.5331,-3.534,-3.5393,-3.5415,-3.5458,-3.5464,-3.5523,-3.5537,-3.5545,-3.5595,-3.5596,-3.5653,-3.5651,-3.5735,-3.5726,-3.5726,-3.5723,-3.5778,-3.5772,-3.5958,-3.5981,-3.5821,-3.5823,-3.5824,0,-3.5302,-3.5353,-3.5386,-3.5417,-3.5435,-3.5484,-3.5514,-3.5509,-3.554,-3.5578,-3.5616,-3.5665,-3.5703,-3.5784,-3.5794,-3.5837,-3.5828,-3.589,-3.5834,-3.5835,-3.5827,-3.5823,-3.5827,-3.59,-3.5902,-3.5904,-3.5905,0,-3.5448,-3.5448,-3.5492,-3.5537,-3.5573,-3.5608,-3.564,-3.5666,-3.5664,-3.57,-3.5752,-3.5782,-3.584,-3.5888,-3.5929,-3.5944,-3.5924,-3.5922,-3.5937,-3.594,-3.5937,-3.5938,-3.5754,-3.5918,-3.5917,-3.5916,-3.5915,-3.5914,-3.5553,-3.5597,-3.5627,-3.5676,-3.57,-3.573,-3.5771,-3.5782,-3.5826,-3.5874,-3.5868,-3.5925,-3.5952,-3.6006,-3.6024,-3.6067,-3.6045,-3.6067,-3.6072,-3.6077,-3.6083,-3.5932,-3.6075,-3.6074,-3.6074,-3.6074,-3.6073,0,-3.5697,-3.5715,-3.576,-3.5806,-3.5845,-3.5824,-3.5858,-3.5891,-3.5942,-3.5969,-3.6008,-3.6066,-3.6112,-3.6125,-3.6169,-3.6201,-3.6192,-3.6212,-3.6209,-3.6212,-3.6101,-3.6083,-3.6218,-3.6218,-3.6218,-3.6218,-3.6218,-3.6218,-3.5776,-3.5849,-3.5852,-3.5935,-3.5952,-3.6009,-3.603,-3.6057,-3.6079,-3.6145,-3.6183,-3.6192,-3.6214,-3.6259,-3.6299,-3.6302,-3.6318,-3.6342,-3.634,-3.6235,-3.6221,-3.6207,-3.619,-3.6346,-3.6346,-3.6448,-3.6449,-3.645]}]]